Showing default

IRIDIUM 82, 25467

Orbit data source: Space-Track

IRIDIUM 82, 25467 is a payload satellite owned by Iridium (US) in LEO that was launched on Tue, 08 Sep 1998 UTC via a DELTA 7920-10C launch vehicle from the Air Force Western Test Range (AFWTR). Payload-class satellites include a variety of spacecraft equipped with specific instruments for various scientific and technological missions. These include communications satellites like Starlink; space stations such as the ISS; scientific satellites like the Hubble; Earth observation satellites from companies like Planet Labs, Umbra, and HawkEye 360; GPS; miniature CubeSats for education and research; and military/defense satellites.

Loading next visibility...
Identifier
25467, 1998-051A
Orbit
LEO
Country
Flag of USUS
Related business
Manufacturer
MOTO/LMMS
Mission
Non-operational Commercial Communications
Bus & Motor
LM700, Unknown motor
Mass
662 kg wet, 556 kg dry
Launch date (UTC)
1998-09-08 (28 years ago)
Launch vehicle
DELTA 7920-10C
Launch site
Air Force Western Test Range (AFWTR)
Object type
Payload
Rocket body
Debris
Shape & HBR
Box + 2 Pan, 4.0 m
Radar Cross Section
5.666 m², Large (>1 m²)

Expand to show TLE details & history
Last TLE update: 20 hours ago

TLE from 20 hours ago
0 IRIDIUM 82
1 25467U 98051A   26149.82091114  .00157396  00000-0  11487-2 0  9999
2 25467  86.3481 294.9586 0032254  28.6433 331.6601 15.72086834477564
Epoch: 2026-05-29T19:42Z
TLE epoch observation values (Epoch: 2026-05-29T19:42:06.722Z)
Latitude
-0°
Longitude
112.08479°
Altitude
337.08 km
Speed
7.717 km/s
True Right ascension
19h 39m 50s
True Declination
0° 00' 00"
Sunlit
Object was in full shadow at epoch
Visualization orbit readout
Latitude
Unknown
Longitude
Unknown
Altitude
Unknown
Speed
Unknown
Apparent Right ascension
Unknown
Apparent Declination
Unknown
Sunlit
N/A
Visualization observer readout
Local Sidereal Time
01:38:30
Azimuth
Unknown
Elevation
Unknown
Doppler factor
Unknown
Orbital elements
Apogee altitude
371.407 km
Perigee altitude
328.007 km
Semi-major axis
6,727.844 km
Eccentricity
0.00323
Inclination
86.3481°
RAAN
294.9586°
Arg. of periapsis
28.6433°
True anomaly
331.48402°
Mean anomaly
331.6601°
Eccentric anomaly
331.57212°
Mean motion
3.93305 °/min
Orbital period
91.53 mins
BSTAR
0.0011487
Loading maneuver chart data...
Computing Atmospheric mass density...
Loading historical data...
Loading historical data...
Loading historical data...
Loading historical data...
Loading historical data...
Loading historical data...
Loading historical data...

Documentation

Showing up to 5 results
|